Tracking 19224 objects as of 22-Jul-2018
HD Live streaming from Space Station
objects crossing your sky now

FENGYUN 1C DEB

Track FENGYUN 1C DEB now!
10-day predictions


NORAD ID: 30994
Int'l Code: 1999-025BCL
Perigee: 852.8 km
Apogee: 877.4 km
Inclination: 98.9 °
Period: 102.1 minutes
Semi major axis: 7236 km
RCS: 0.0074 m2 (small)
Launch date: May 10, 1999
Source: People's Republic of China (PRC)
Launch site: Taiyaun Space Center, China (TSC)

Note: This is SATELLITE DEBRIS
aabbcc
Your satellite tracking list
Your tracking list is empty




NASA's NSSDC Master Catalog

Two Line Element Set (TLE):
1 30994U 99025BCL 18202.52369178 +.00000032 +00000-0 +42761-4 0  9993
2 30994 098.9287 230.4123 0017007 262.1675 097.7564 14.10407105584973
Source of the keplerian elements: AFSPC